sat.trackr.live / text

‹ back to catalog

STARLINK-36909

NORAD 67946 · 2026-037Q

PAYLOAD ACTIVE UNKNOWN

§ Identity

Operator
Country
US
Launch date
2026-02-24
Launch site
AFETR
Launch vehicle
Mass (kg)
RCS (m²)

Purposes: comms

External: N2YO · Heavens-Above · Gunter

§ Orbital elements

Epoch: 2026-09-19T11:47:17.888928Z

Period
94.27 min
Inclination
43.0031°
Eccentricity
0.0002289
Mean motion
15.27584489 rev/d
Perigee alt
481.5 km
Apogee alt
484.6 km
Semi-major
6,861.2 km
B*
4.1216e-4
RAAN
175.9151°
Arg perigee
271.0336°
Mean anomaly
89.0253°
Rev number
3,298

§ Raw data

STARLINK-369091 67946U 26037Q   26262.49117927  .00011098  00000+0  41216-3 0  99932 67946  43.0031 175.9151 0002289 271.0336  89.0253 15.27584489 32989

JSON: /api/v1/satellites/67946 · /tle

For live sub-satellite position, see the globe view (requires WebGL).

§ Visibility from observer

Set your observer location to see the next 7 days of passes ≥ 10°. The values pass through the URL so the page stays shareable.

No JS? Fill the form by hand. The geolocation button needs JavaScript.